Flag for U.S.A. Weather past 2 weeks in Osage City, Kansas, U.S.A.

Now
65 °F

Partly sunny.


Feels Like: 65 °F
Forecast: 66 / 87 °F
Wind: 3 mph from East

Location: Forbes Field

Current Time: Sep 18, 2014 at 8:51:10 PM

Latest Report: Sep 18, 2014 at 7:53 PM


Visibility: 10 mi

Pressure: 29.97 "Hg

Humidity: 87%

Dew point: 61 °F

Location of Osage CityLocation

Historic Weather in Osage City — Graph

°F

Osage City temperature yesterday

Maximum temperature yesterday: 76 °F (at 3:53 PM)
Minimum temperature yesterday: 63 °F (at 3:53 AM)
Average temperature yesterday: 68 °F

Past Weeks' High & Low Weather Summary

 TemperatureHumidityPressure
High94 °F (Sep 4, 1:53 PM)100% (Sep 13, 7:53 AM)30.43 "Hg (Sep 13, 7:53 AM)
Low37 °F (Sep 13, 4:53 AM)38% (Sep 4, 3:53 PM)29.49 "Hg (Sep 9, 11:53 PM)
Average66 °F75%30.05 "Hg
* Reported Sep 3 6:53 PM — Sep 18 6:53 PM, Osage City, Weather by CustomWeather, © 2014

Note: Actual official high and low records may vary slightly from our data, if they occured in-between our weather recording intervals... More about our weather records

Advertising

Osage City weather history for previous 24 hours

 ConditionsComfort  
Time TempWeatherWind HumidityBarometerVisibility
6:53 PM
Sep 18
67 °FOvercast.8 mph85%29.95 "Hg6 mi
5:53 PM69 °FOvercast.12 mph79%29.95 "Hg8 mi
4:53 PM70 °FOvercast.8 mph79%29.95 "Hg8 mi
3:53 PM72 °FOvercast.8 mph73%29.95 "Hg10 mi
2:53 PM70 °FMostly cloudy.9 mph81%29.96 "Hg8 mi
1:53 PM69 °FMostly cloudy.9 mph81%29.97 "Hg6 mi
12:53 PM69 °FMostly cloudy.8 mph84%29.99 "Hg8 mi
11:53 AM67 °FFog.8 mph87%30.00 "Hg6 mi
10:53 AM66 °FFog.9 mph90%30.01 "Hg2 mi
9:53 AM64 °FFog.9 mph94%29.99 "Hg3 mi
8:53 AM64 °FFog.8 mph94%29.97 "Hg4 mi
7:53 AM64 °FFog.7 mph94%29.96 "Hg3 mi
6:53 AM64 °FFog.10 mph94%29.93 "Hg5 mi
5:53 AM65 °FFog.8 mph94%29.93 "Hg6 mi
4:53 AM65 °FFog.6 mph97%29.93 "Hg5 mi
4:03 AM64 °FFog.9 mph97%29.95 "Hg1 mi
3:53 AM64 °FFog.10 mph97%29.92 "Hg1 mi
3:04 AM64 °FFog.6 mph97%29.95 "Hg6 mi
2:53 AM64 °FClear.5 mph97%29.90 "Hg7 mi
2:00 AM63 °FFog.6 mph100%29.93 "Hg2 mi
12:53 AM60 °FFog.No wind96%29.91 "Hg0 mi
12:03 AM63 °FFog.3 mph97%29.94 "Hg0 mi
11:02 PM
Sep 17
63 °FFog.5 mph93%29.95 "Hg2 mi
10:53 PM63 °FFog.No wind97%29.93 "Hg4 mi
9:53 PM64 °FFog.No wind97%29.91 "Hg4 mi
8:53 PM67 °FFog.6 mph90%29.89 "Hg6 mi
Weather by CustomWeather, © 2014

See weather overviewHow to use our weather pages